Terminal Aerodrome Forecast
Issued by NWS

Current Version | Previous Version | Text Only | Print | Product List | Glossary Off
Versions: 1 2 3 4 5 6 7 8 9 10 11 12 13 14 15 16 17 18 19 20 21 22 23 24

000
FTUS41 KPBZ 172300
TAFMGW
TAF
KMGW 172323Z 1800/1824 VRB04KT P6SM BKN050
      TEMPO 1800/1804 5SM BR BKN025
     FM180400 VRB03KT 4SM BR BKN015
     FM180700 VRB02KT 1SM BR BKN008
     FM181300 VRB04KT P6SM BKN040=

USA.gov is the U.S. government's official web portal to all federal, state and local government web resources and services.